CZ-6A DEB

Satellite information

Favourite Embed

Satellite Type and Status

DEBRISIN ORBIT

Key statistics

Satellite CZ-6A DEB at a glance.

Uptime

1129

Days in orbit

Revolutions

≈ 14.2

Per day

Orbit

SSO

Sun Synchronous Orbit

Inclination

98.8

Latest

Satellite identification and parameters

Extended collection of information and parameters for CZ-6A DEB.

Object identification

Identified? True

Debris? True

Object name: CZ-6A DEB

International designator: 2022-151AFK

Object number (NORAD): 56635

Object ID (CCSDS): 56635

Country: PEOPLES REPUBLIC OF CHINA (PRC)

Current information (Y/N): Y

RCS size: SMALL

Orbital parameters

Period: 101.386 minutes

Inclination: 98.7563 deg

SMA: 7202.447 km

Apoapsis: 846.198 km

Periapsis: 802.427 km

RAAN: 353.3981 deg

Eccentricy: 0.0030386

Argument of periapsis: 163.7581 deg

Mean anomaly: 196.4577 deg

Mean motion: 14.20308259 rev/day

Mean motion (dot): 0.00001113 rev/day2

B* drag term: 0.00053822 1/REarth

Two-line elements (TLE)

Creation date: Dec. 12, 2025, 7:26 a.m.

Reference frame: TEME

Reference center: EARTH

Epoch: Dec. 11, 2025, 8:24 p.m. UTC

TLE line 0: 0 CZ-6A DEB

TLE line 1: 1 56635U 22151AFK 25345.85005314 .00001113 00000-0 53822-3 0 9990

TLE line 2: 2 56635 98.7563 353.3981 0030386 163.7581 196.4577 14.20308259136393

Live tracking on map

Real-time ground track for satellite CZ-6A DEB.

In-orbit conjunctions

A list of the most updated potential collisions computed for object CZ-6A DEB.

Target Orbit TCA Probability of collision Miss distance Type
CZ-6A DEB LEO 2025-10-21 23:40:50 0.0001491001 168.0 (m) DEBRIS
CZ-6A DEB LEO 2025-02-10 02:47:13 0.0002215819 610.0 (m) DEBRIS

Associated space launch

Chinese satellite reported for atmospheric/ocean/environmental/spatial parameter research purposes, details TBD.

CZ-6A DEB was lifted into orbit during the mission ‘Long March 6A | Yunhai 3’, on board a Long March 6A space rocket.

The launch took place on Nov. 11, 2022, 10:52 p.m. from Launch Complex 9A.

For more information about the launch, click the button.

Launch to space Long March 6A | Yunhai 3
Long March 6A | Yunhai 3

Agency: N/A

Status: Launch Successful

Launch date: Nov. 11, 2022, 10:52 p.m. UTC

Rocket: Long March 6A

Launch pad: Launch Complex 9A

Location: Taiyuan Satellite Launch Center, People's Republic of China

...

Latest news about this satellite

There are no fresh news available about this satellite. Check back as we update our databases every day.


Newsletter sign-up

Weekly statistics, charts and insights to help you stay on top of the space industry.